[[{"header":{"parameterUnit":"m.s-1","parameterCategory":1,"la1":30.2991,"la2":30.254,"lo1":-89.0895,"lo2":-89.0444,"dy":0.0017,"dx":0.0017,"nx":28,"ny":28,"refTime":"2023-09-08T03:00:00:Z","depth":0,"parameterNumber":2,"parameterNumberName":"U-component_of_WINDS"},"data":[0,0,0,0,0,0,0,0,0,0,0,0,0,0,0,0,0,0,0,0,0,0,0,0,0,0,0,0,0,0,0,0,0,0,0,0,0,0,0,0,0,0,0,0,0,0,0,0,0,0,0,0,0,0,0,0,0,0,1.6837,1.6837,0,1.6798,1.6797,1.6797,1.6726,1.6724,1.6723,1.6722,1.6681,1.6681,1.6681,0,0,0,0,0,0,0,0,0,0,0,0,0,1.6853,1.6853,1.6837,1.6837,1.6836,1.6798,1.6797,1.6797,1.6726,1.6724,1.6722,1.6721,1.6681,1.6681,1.6681,0,0,0,0,0,0,0,0,0,0,0,0,0,1.6833,1.6853,1.6837,1.6796,1.6792,1.6798,1.6797,1.6796,1.6726,1.6724,1.6722,1.672,1.6681,1.6681,1.6681,1.6724,0,0,1.6682,1.6682,0,0,0,0,0,0,0,0,1.6834,1.6833,1.6803,1.6799,1.6795,1.6764,1.6788,1.6772,1.6727,1.6751,1.6722,1.6719,1.671,1.6708,1.6705,1.6722,1.672,1.6682,1.6682,1.6682,1.6682,0,0,0,0,0,0,0,1.6836,1.6834,1.6822,1.6803,1.6798,1.678,1.6775,1.6784,1.6743,1.6749,1.6744,1.674,1.6708,1.6705,1.6704,1.6719,1.6682,1.6682,1.6683,1.6683,1.677,1.6772,0,0,0,0,0,0,1.6843,1.6836,1.6823,1.682,1.681,1.6782,1.6776,1.6776,1.6742,1.6735,1.6742,1.6737,1.6705,1.6703,1.6702,1.675,1.6682,1.6683,1.6683,1.6768,1.6771,1.6773,0,0,0,0,0,0,1.6844,1.6843,1.6824,1.6827,1.6823,1.6784,1.6784,1.6776,1.6774,1.6737,1.6729,1.6747,1.6704,1.6701,1.6719,1.6748,1.6683,1.6683,1.6765,1.6769,1.6772,1.6846,0,0,0,0,0,0,1.6845,1.6843,1.6859,1.6827,1.6823,1.6842,1.6786,1.6777,1.6774,1.6767,1.6739,1.6733,1.6702,1.6719,1.6719,1.6747,1.6683,1.6763,1.6767,1.6771,1.6841,1.6852,1.6861,0,0,0,0,0,1.6845,1.6881,1.686,1.6859,1.6841,1.6844,1.6841,1.6805,1.6777,1.6792,1.6769,1.6734,1.6745,1.6721,1.6721,1.6749,1.6761,1.6766,1.677,1.6837,1.685,1.6861,0,0,0,0,0,0,1.6916,1.6876,1.6852,1.6879,1.6865,1.6832,1.685,1.682,1.6814,1.6808,1.6764,1.6758,1.6782,1.6767,1.6742,1.6789,1.6747,1.6752,1.6798,1.681,1.6819,1.6823,1.6683,0,0,0,0,0,1.6935,1.694,1.6905,1.6932,1.6926,1.689,1.6889,1.6863,1.6847,1.6841,1.6819,1.6805,1.6806,1.6807,1.6805,1.6839,1.6832,1.6858,1.6868,1.6876,1.6881,1.6899,1.6911,1.6789,1.6789,1.6789,0,0,1.6974,1.6952,1.6958,1.6946,1.6932,1.6939,1.6885,1.6895,1.6899,1.6842,1.6858,1.6842,1.6823,1.685,1.686,1.6838,1.6914,1.6882,1.6889,1.689,1.6906,1.6917,1.6928,1.6792,1.6792,1.6791,0,0,1.7048,1.7032,1.7053,1.7041,1.7022,1.6997,1.7003,1.6974,1.6961,1.6976,1.6934,1.6939,1.694,1.693,1.6924,1.6997,1.6964,1.6997,1.7049,1.7067,1.7076,1.7085,1.7112,1.7122,1.7002,1.7002,1.7003,0,1.7099,1.7107,1.7068,1.708,1.7076,1.7026,1.7047,1.7037,1.7019,1.7017,1.6993,1.6995,1.6979,1.7003,1.702,1.7017,1.7023,1.7,1.7078,1.7086,1.7093,1.7118,1.7128,1.7007,1.7006,1.7006,1.7005,0,1.7171,1.7177,1.7197,1.7181,1.7179,1.7196,1.716,1.7163,1.7137,1.7116,1.7132,1.7112,1.7105,1.7109,1.7083,1.713,1.7117,1.7086,1.7043,1.711,1.7133,1.7142,1.7013,1.7011,1.701,1.7009,0,0,1.7288,1.725,1.7258,1.7251,1.7226,1.7231,1.7246,1.724,1.7244,1.7233,1.7246,1.7249,1.7221,1.7215,1.7188,1.7204,1.7264,1.7171,1.717,1.719,1.7315,1.7339,1.735,1.7242,1.7244,1.7245,1.7317,0,1.7357,1.7381,1.7347,1.7378,1.7385,1.7337,1.7351,1.7338,1.7319,1.7321,1.73,1.7303,1.7265,1.7262,1.7276,1.7254,1.7288,1.7248,1.7254,1.7255,1.726,1.7362,1.7387,1.7455,1.7325,1.7327,1.7328,0,1.7441,1.7435,1.7467,1.7442,1.7443,1.7456,1.7449,1.7452,1.7437,1.7421,1.7416,1.7384,1.7398,1.7357,1.7376,1.7349,1.735,1.734,1.7342,1.7341,1.7296,1.7365,1.7476,1.7487,1.7341,1.734,1.7339,0,1.7524,1.7524,1.7543,1.7538,1.7509,1.752,1.7508,1.749,1.749,1.7484,1.7483,1.7478,1.7476,1.7474,1.7442,1.7415,1.7466,1.7421,1.7454,1.7456,1.7467,1.7467,1.7581,1.7467,1.7467,1.7467,1.7467,0,1.7605,1.7627,1.7581,1.7593,1.7616,1.7578,1.7602,1.7586,1.7571,1.758,1.7538,1.7548,1.7505,1.751,1.7485,1.7506,1.7505,1.7494,1.7487,1.7498,1.7499,1.7498,1.7492,1.7469,1.7469,1.7468,1.7468,0,1.7702,1.7672,1.769,1.7662,1.7655,1.7674,1.7649,1.766,1.7638,1.765,1.7651,1.7617,1.7621,1.7589,1.7587,1.757,1.7603,1.7587,1.7608,1.7603,1.7639,1.7636,1.7756,1.777,1.7647,1.7648,1.7649,0,1.7756,1.7772,1.7746,1.7749,1.7739,1.7744,1.7744,1.7706,1.7707,1.7692,1.7705,1.7705,1.7704,1.7712,1.7688,1.7686,1.7671,1.7713,1.767,1.7681,1.7673,1.7673,1.7674,1.7722,1.7724,1.7725,1.7726,0,1.7856,1.784,1.7841,1.7837,1.7837,1.7832,1.7824,1.7829,1.7789,1.7792,1.7796,1.7795,1.7793,1.7794,1.7788,1.7776,1.7745,1.774,1.7747,1.7759,1.777,1.7766,1.7633,1.7737,1.7736,1.7735,1.7734,1.7734,1.7933,1.7946,1.7929,1.7932,1.7922,1.7916,1.7925,1.7905,1.7907,1.7903,1.7881,1.7889,1.7875,1.7863,1.7855,1.7861,1.7841,1.7852,1.7855,1.7858,1.7865,1.7769,1.786,1.7859,1.7859,1.7859,1.7859,0,1.8031,1.8019,1.8021,1.8012,1.8014,1.7985,1.7975,1.7979,1.7986,1.7976,1.7975,1.798,1.7982,1.7958,1.7957,1.7967,1.7953,1.7968,1.7967,1.7965,1.7883,1.7877,1.7979,1.7979,1.7979,1.7979,1.7979,1.7979,1.8083,1.8103,1.8086,1.8101,1.8088,1.8096,1.8093,1.8088,1.8079,1.8086,1.8088,1.8072,1.8057,1.8054,1.8055,1.8048,1.805,1.807,1.8059,1.7982,1.7971,1.796,1.7954,1.8071,1.8071,1.8141,1.8141,1.8142]},{"header":{"parameterUnit":"m.s-1","parameterCategory":1,"la1":30.2991,"la2":30.254,"lo1":-89.0895,"lo2":-89.0444,"dy":0.0017,"dx":0.0017,"nx":28,"ny":28,"refTime":"2023-09-08T03:00:00:Z","depth":0,"parameterNumber":3,"parameterNumberName":"V-component_of_WINDS"},"data":[0,0,0,0,0,0,0,0,0,0,0,0,0,0,0,0,0,0,0,0,0,0,0,0,0,0,0,0,0,0,0,0,0,0,0,0,0,0,0,0,0,0,0,0,0,0,0,0,0,0,0,0,0,0,0,0,0,0,-2.3405,-2.3406,0,-2.3503,-2.3504,-2.3505,-2.349,-2.3489,-2.3487,-2.3485,-2.3585,-2.3589,-2.3594,0,0,0,0,0,0,0,0,0,0,0,0,0,-2.3204,-2.3208,-2.3405,-2.3406,-2.3407,-2.3503,-2.3504,-2.3506,-2.3491,-2.3489,-2.3487,-2.3485,-2.3584,-2.3589,-2.3594,0,0,0,0,0,0,0,0,0,0,0,0,0,-2.3296,-2.3209,-2.3405,-2.3411,-2.3413,-2.3503,-2.3504,-2.3506,-2.3491,-2.3489,-2.3486,-2.3484,-2.3582,-2.3588,-2.3595,-2.3684,0,0,-2.3614,-2.3617,0,0,0,0,0,0,0,0,-2.3291,-2.3303,-2.3409,-2.3411,-2.3413,-2.3482,-2.347,-2.3566,-2.3492,-2.3461,-2.3485,-2.3483,-2.3553,-2.3562,-2.3585,-2.3688,-2.3693,-2.3615,-2.3618,-2.3621,-2.3623,0,0,0,0,0,0,0,-2.3284,-2.3299,-2.3444,-2.3411,-2.3413,-2.341,-2.342,-2.3488,-2.352,-2.3464,-2.3463,-2.3475,-2.3553,-2.3579,-2.3588,-2.3694,-2.3614,-2.362,-2.3624,-2.3626,-2.3876,-2.3878,0,0,0,0,0,0,-2.3276,-2.3294,-2.3441,-2.3447,-2.3345,-2.3415,-2.3427,-2.3462,-2.3519,-2.3525,-2.3477,-2.3474,-2.357,-2.358,-2.3591,-2.37,-2.3621,-2.3627,-2.3631,-2.3873,-2.3876,-2.3879,0,0,0,0,0,0,-2.3272,-2.3289,-2.3437,-2.337,-2.3389,-2.3421,-2.3462,-2.3466,-2.3491,-2.3529,-2.3535,-2.3498,-2.3568,-2.3582,-2.3661,-2.3703,-2.363,-2.3636,-2.387,-2.3874,-2.3878,-2.3917,0,0,0,0,0,0,-2.3266,-2.3288,-2.3322,-2.3371,-2.3392,-2.3505,-2.3464,-2.3469,-2.3503,-2.3499,-2.355,-2.3556,-2.3567,-2.3652,-2.3667,-2.371,-2.3641,-2.3866,-2.3872,-2.3877,-2.3912,-2.3922,-2.3931,0,0,0,0,0,-2.3259,-2.3329,-2.3324,-2.3342,-2.3436,-2.3508,-2.352,-2.3532,-2.3506,-2.3541,-2.3565,-2.3554,-2.3696,-2.366,-2.3677,-2.3723,-2.3863,-2.387,-2.3876,-2.3908,-2.392,-2.393,0,0,0,0,0,0,-2.3284,-2.3336,-2.3331,-2.3418,-2.3459,-2.3505,-2.3549,-2.3544,-2.3593,-2.3588,-2.36,-2.3612,-2.3692,-2.3715,-2.3674,-2.3812,-2.3776,-2.3786,-2.3794,-2.3806,-2.3815,-2.3808,-2.3646,0,0,0,0,0,-2.33,-2.3354,-2.3396,-2.347,-2.349,-2.3516,-2.3548,-2.3554,-2.3596,-2.3613,-2.3643,-2.3684,-2.3738,-2.3773,-2.3825,-2.3915,-2.3926,-2.3955,-2.3964,-2.3972,-2.398,-2.4031,-2.4044,-2.39,-2.39,-2.39,0,0,-2.3333,-2.3368,-2.3401,-2.3476,-2.3507,-2.3563,-2.3531,-2.3591,-2.3633,-2.3622,-2.3699,-2.3722,-2.3769,-2.3854,-2.3893,-2.3876,-2.4023,-2.398,-2.3985,-2.399,-2.4039,-2.4052,-2.4064,-2.3905,-2.3904,-2.3903,0,0,-2.3422,-2.3454,-2.3519,-2.3551,-2.36,-2.3617,-2.3633,-2.368,-2.3695,-2.3772,-2.3766,-2.3815,-2.3908,-2.3942,-2.3971,-2.4073,-2.4065,-2.4089,-2.4138,-2.4186,-2.4198,-2.4208,-2.4245,-2.4258,-2.4098,-2.4098,-2.4098,0,-2.3457,-2.3541,-2.3552,-2.3614,-2.3647,-2.364,-2.3706,-2.3737,-2.3801,-2.3824,-2.3803,-2.392,-2.3951,-2.4044,-2.4069,-2.4093,-2.4111,-2.4084,-2.4195,-2.4206,-2.4215,-2.4251,-2.4264,-2.4101,-2.41,-2.41,-2.41,0,-2.3582,-2.364,-2.3687,-2.3749,-2.3787,-2.385,-2.3871,-2.3908,-2.3911,-2.393,-2.4009,-2.4046,-2.4105,-2.4127,-2.413,-2.4222,-2.4209,-2.4192,-2.4156,-2.4231,-2.4265,-2.4278,-2.4105,-2.4104,-2.4103,-2.4102,0,0,-2.369,-2.3757,-2.3774,-2.3802,-2.3856,-2.3901,-2.3964,-2.4022,-2.4054,-2.4098,-2.4151,-2.423,-2.4215,-2.4248,-2.4254,-2.4297,-2.4377,-2.4275,-2.4276,-2.4293,-2.448,-2.4493,-2.4508,-2.4372,-2.4374,-2.4376,-2.4476,0,-2.3784,-2.3896,-2.3908,-2.4008,-2.4062,-2.4057,-2.4112,-2.415,-2.417,-2.4219,-2.424,-2.4296,-2.4271,-2.4292,-2.4334,-2.4358,-2.4414,-2.4351,-2.4422,-2.4424,-2.4411,-2.4526,-2.454,-2.4632,-2.4489,-2.4491,-2.4493,0,-2.3909,-2.3957,-2.4062,-2.4109,-2.4132,-2.4181,-2.4236,-2.4283,-2.4327,-2.4338,-2.4376,-2.4377,-2.4442,-2.4403,-2.4493,-2.445,-2.448,-2.4496,-2.45,-2.4507,-2.4463,-2.4537,-2.4662,-2.4676,-2.4514,-2.4512,-2.4511,0,-2.3978,-2.4069,-2.4143,-2.4168,-2.4223,-2.4258,-2.4283,-2.4325,-2.4359,-2.4407,-2.4429,-2.4484,-2.4514,-2.4556,-2.4572,-2.4542,-2.4661,-2.4624,-2.4673,-2.4673,-2.4699,-2.4697,-2.4831,-2.4717,-2.4717,-2.4716,-2.4716,0,-2.4083,-2.4147,-2.4175,-2.4221,-2.4294,-2.4307,-2.4378,-2.4402,-2.4439,-2.4489,-2.4488,-2.4535,-2.4553,-2.4604,-2.4616,-2.469,-2.4703,-2.4714,-2.4717,-2.4715,-2.4713,-2.4734,-2.4729,-2.472,-2.4719,-2.4719,-2.4718,0,-2.4172,-2.4193,-2.4274,-2.432,-2.4334,-2.4385,-2.4425,-2.4469,-2.4488,-2.4552,-2.4568,-2.4598,-2.4657,-2.4677,-2.4749,-2.4758,-2.4843,-2.484,-2.4829,-2.4829,-2.4877,-2.4873,-2.503,-2.5052,-2.4923,-2.4924,-2.4925,0,-2.4237,-2.4287,-2.4339,-2.4373,-2.4399,-2.4453,-2.4489,-2.4504,-2.454,-2.4594,-2.4633,-2.4692,-2.474,-2.4835,-2.4863,-2.4918,-2.4917,-2.4968,-2.4925,-2.4921,-2.4918,-2.4915,-2.492,-2.4976,-2.4977,-2.4978,-2.4979,0,-2.4352,-2.436,-2.441,-2.4465,-2.4507,-2.4551,-2.4593,-2.4621,-2.4642,-2.4683,-2.4744,-2.4782,-2.4855,-2.4914,-2.497,-2.4996,-2.4992,-2.4993,-2.5007,-2.5006,-2.4997,-2.5003,-2.4851,-2.4989,-2.4988,-2.4987,-2.4987,-2.4986,-2.4432,-2.4476,-2.4519,-2.4576,-2.4609,-2.4649,-2.4693,-2.4718,-2.4769,-2.483,-2.4836,-2.4901,-2.4945,-2.502,-2.5048,-2.51,-2.5086,-2.5106,-2.5112,-2.5117,-2.5121,-2.4988,-2.511,-2.511,-2.511,-2.5109,-2.5109,0,-2.4546,-2.4574,-2.4626,-2.4685,-2.473,-2.4722,-2.4768,-2.4806,-2.4864,-2.4905,-2.4952,-2.5022,-2.5079,-2.5112,-2.5169,-2.5204,-2.5204,-2.5219,-2.5217,-2.5223,-2.513,-2.5112,-2.5219,-2.5218,-2.5218,-2.5218,-2.5218,-2.5218,-2.4611,-2.4686,-2.4699,-2.479,-2.4817,-2.4882,-2.4909,-2.4946,-2.4978,-2.5057,-2.5104,-2.5125,-2.5163,-2.5223,-2.5275,-2.5283,-2.5304,-2.5321,-2.5328,-2.5241,-2.5229,-2.5219,-2.5202,-2.5326,-2.5326,-2.5417,-2.5418,-2.5418]}]]